Connexion S'enregistrer

Connexion à votre compte

Identifiant
Mot de passe
Maintenir la connexion active sur ce site

Créer un compte

Pour valider ce formulaire, vous devez remplir tous les champs.
Nom
Identifiant
Mot de passe
Répétez le mot de passe
Adresse e-mail
Répétez l'adresse e-mail

METAR/TAF de Chambéry

[source: ADDS]
METAR
LFLB 211400Z AUTO VRB01KT 9999 FEW035 BKN049 OVC058 12/07 Q1023 NOSIG =
TAF
TAF LFLB 211100Z 2112/2212 36005KT 9999 BKN040 PROB40 TEMPO 2200/2208 3000 BR BECMG 2208/2210 CAVOK =
SR / SS: 06:27 / 17:12 UTC (Lever/Coucher du soleil le 2017-02-21)

 

Webcam de l'Aéroclub - Parking Lima et SW (réactualisation : 5min)

Cliquer ici pour une animation sur les 3 dernières heures / Cliquer sur l'image pour l'agrandir dans une nouvelle fenêtre

 

Webcam de l'Aéroclub - Manche à air et WA (réactualisation : 5min)

Cliquer ici pour une animation sur les 3 dernières heures / Cliquer sur l'image pour l'agrandir dans une nouvelle fenêtre

 

Webcam Bourget-du-Lac (en direct)